Abakan, Russia

9:12 AM +07 on November 20, 2019 (GMT +0700)
Abakan

Weather History for UNAA - September, 2019

Change the Weather History Date:

Wednesday, September 4, 2019

  Actual Average Record
Temperature  
Mean Temperature 54 °F -  
Max Temperature 60 °F - - ()
Min Temperature 48 °F - - ()
Degree Days  
Heating Degree Days 11    
Growing Degree Days 4 (Base 50)    
Moisture  
Dew Point 52 °F    
Average Humidity 88    
Maximum Humidity 100    
Minimum Humidity 72    
Precipitation  
Precipitation 0.00 in - - ()
Sea Level Pressure  
Sea Level Pressure 29.95 in    
Wind  
Wind Speed 5 mph ()    
Max Wind Speed 13 mph    
Max Gust Speed -    
Visibility 5.9 miles    
Events Rain    
T = Trace of Precipitation, MM = Missing Value Source: Averaged Metar Reports

Daily Weather History Graph

Daily Weather History Graph

Search for Another Location

Airport or City:

Astronomy

Sep. 04, 2019 Rise Set
Actual Time 6:07 AM +07 7:38 PM +07
Civil Twilight 5:30 AM +07 8:15 PM +07
Nautical Twilight 4:45 AM +07 9:00 PM +07
Astronomical Twilight 3:54 AM +07 9:50 PM +07
Moon 12:21 PM +07 (9/4) 10:03 PM +07 (9/4)
Length of Visible Light 14h 44m
Length of Day
13h 31m
Waxing Crescent, 30% of the Moon is Illuminated
Sep 4
Waxing Crescent
Sep 6
First Quarter
Sep 14
Full
Sep 22
Last Quarter
Sep 29
New

Hourly Weather History & Observations

Time (+07) Temp. Dew Point Humidity Pressure Visibility Wind Dir Wind Speed Gust Speed Precip Events Conditions
12:00 AM 57.2 °F 53.6 °F 88% 29.86 in 6.2 mi NNW 6.7 mph - N/A Rain Light Rain Showers
12:30 AM 59.0 °F 53.6 °F 82% 29.86 in 6.2 mi NNE 6.7 mph - N/A   Scattered Clouds
1:00 AM 57.2 °F 55.4 °F 94% 29.92 in 6.2 mi NW 8.9 mph - N/A Rain Light Rain Showers
1:30 AM 57.2 °F 53.6 °F 88% 29.95 in 6.2 mi WNW 13.4 mph - N/A Rain Light Rain Showers
2:00 AM 55.4 °F 51.8 °F 88% 29.92 in 6.2 mi WNW 6.7 mph - N/A Rain Light Rain Showers
2:30 AM 55.4 °F 51.8 °F 88% 29.95 in 6.2 mi WNW 8.9 mph - N/A   Scattered Clouds
3:00 AM 53.6 °F 51.8 °F 94% 29.95 in 6.2 mi WNW 2.2 mph - N/A   Scattered Clouds
3:30 AM 55.4 °F 53.6 °F 94% 29.95 in 6.2 mi South 6.7 mph - N/A Rain Light Rain Showers
4:00 AM 55.4 °F 53.6 °F 94% 29.95 in 6.2 mi South 2.2 mph - N/A   Scattered Clouds
4:30 AM 55.4 °F 53.6 °F 94% 29.95 in - SW 2.2 mph - N/A   Clear
5:00 AM 53.6 °F 51.8 °F 94% 29.95 in - SW 4.5 mph - N/A   Clear
5:30 AM 53.6 °F 51.8 °F 94% 29.98 in - WSW 6.7 mph - N/A   Clear
6:30 AM 53.6 °F 51.8 °F 94% 29.95 in - ESE 2.2 mph - N/A   Clear
7:00 AM 53.6 °F 51.8 °F 94% 29.95 in - Calm Calm - N/A   Clear
7:30 AM 55.4 °F 53.6 °F 94% 29.95 in - South 2.2 mph - N/A   Clear
8:00 AM 55.4 °F 53.6 °F 94% 29.95 in - SSE 4.5 mph - N/A   Clear
9:00 AM 59.0 °F 51.8 °F 77% 29.92 in - Calm Calm - N/A   Clear
9:30 AM 59.0 °F 51.8 °F 77% 29.92 in - WSW 2.2 mph - N/A   Clear
10:00 AM 59.0 °F 53.6 °F 82% 29.92 in - NW 2.2 mph - N/A   Clear
10:30 AM 59.0 °F 51.8 °F 77% 29.92 in - West 2.2 mph - N/A   Clear
11:00 AM 60.8 °F 51.8 °F 72% 29.92 in - NE 2.2 mph - N/A   Clear
11:30 AM 59.0 °F 51.8 °F 77% 29.92 in - NW 2.2 mph - N/A   Clear
12:00 PM 59.0 °F 51.8 °F 77% 29.92 in 6.2 mi North 4.5 mph - N/A Rain Light Rain Showers
12:30 PM 59.0 °F 53.6 °F 82% 29.92 in 6.2 mi North 4.5 mph - N/A Rain Light Rain Showers
1:00 PM 59.0 °F 51.8 °F 77% 29.92 in 6.2 mi NNE 2.2 mph - N/A Rain Light Rain Showers
1:30 PM 59.0 °F 53.6 °F 82% 29.92 in 6.2 mi West 4.5 mph - N/A   Scattered Clouds
2:00 PM 55.4 °F 51.8 °F 88% 29.95 in 3.1 mi West 11.2 mph - N/A Rain Light Rain Showers
3:00 PM 53.6 °F 50.0 °F 88% 29.95 in 6.2 mi West 4.5 mph - N/A Rain Light Rain Showers
3:30 PM 53.6 °F 51.8 °F 94% 29.95 in 6.2 mi NW 4.5 mph - N/A Rain Light Rain Showers
4:00 PM 55.4 °F 51.8 °F 88% 29.95 in 6.2 mi NNW 4.5 mph - N/A Rain Light Rain Showers
4:30 PM 55.4 °F 51.8 °F 88% 29.98 in 6.2 mi NNW 2.2 mph - N/A Rain Light Rain Showers
5:00 PM 55.4 °F 50.0 °F 82% 29.98 in 6.2 mi Calm Calm - N/A   Scattered Clouds
5:30 PM 57.2 °F 51.8 °F 82% 29.98 in - South 2.2 mph - N/A   Clear
6:00 PM 55.4 °F 50.0 °F 82% 29.98 in 6.2 mi SE 4.5 mph - N/A   Scattered Clouds
6:30 PM 55.4 °F 51.8 °F 88% 29.98 in - South 4.5 mph - N/A   Clear
7:00 PM 55.4 °F 50.0 °F 82% 29.98 in - South 6.7 mph - N/A   Clear
7:30 PM 53.6 °F 48.2 °F 82% 29.98 in - South 4.5 mph - N/A   Clear
8:00 PM 53.6 °F 50.0 °F 88% 29.98 in - SSE 4.5 mph - N/A   Clear
8:30 PM 51.8 °F 50.0 °F 94% 29.98 in 5.6 mi SE 4.5 mph - N/A   Unknown
9:00 PM 51.8 °F 50.0 °F 94% 29.98 in - ESE 4.5 mph - N/A   Clear
9:30 PM 51.8 °F 50.0 °F 94% 30.01 in 5.6 mi ESE 4.5 mph - N/A   Unknown
10:00 PM 50.0 °F 48.2 °F 94% 30.01 in 5.6 mi ESE 2.2 mph - N/A   Unknown
10:30 PM 50.0 °F 48.2 °F 94% 30.01 in 5.6 mi SE 6.7 mph - N/A   Unknown
11:00 PM 48.2 °F 48.2 °F 100% 30.01 in 4.3 mi ESE 2.2 mph - N/A   Unknown
11:30 PM 48.2 °F 48.2 °F 100% 30.01 in 5.6 mi ESE 4.5 mph - N/A   Unknown